Weather History for Sonora, TX

Change the Weather History Date:

Sunday, May 26, 2013

  Actual Average (KOZA) Record (KOZA)
Temperature  
Mean Temperature 74 °F -  
Max Temperature 87 °F 89 °F 89 °F (2012)
Min Temperature 62 °F 62 °F 62 °F (2013)
Cooling Degree Days 10    
Growing Degree Days 24 (Base 50)    
Moisture  
Dew Point 66 °F    
Average Humidity 72    
Maximum Humidity 100    
Minimum Humidity 46    
Precipitation  
Precipitation 1.55 in - - ()
Sea Level Pressure  
Sea Level Pressure 30.07 in    
Wind  
Wind Speed 10 mph (South)    
Max Wind Speed 26 mph    
Max Gust Speed 33 mph    
Visibility 9 miles    
Events Rain , Thunderstorm    
Averages and records for this station are not official NWS values.
T = Trace of Precipitation, MM = Missing Value Source: NWS Daily Summary

Daily Weather History Graph

Daily Weather History Graph

Search for Another Location

Airport:

Trip Planner

Search our weather history database for the weather conditions in past years. The results will help you decide how hot, cold, wet, or windy it might be!

Date:

Astronomy

May. 26, 2013 Rise Set
Actual Time 6:42 AM CDT 8:37 PM CDT
Civil Twilight 6:15 AM CDT 9:04 PM CDT
Nautical Twilight 5:42 AM CDT 9:37 PM CDT
Astronomical Twilight 5:08 AM CDT 10:11 PM CDT
Moon 10:28 PM CDT (5/26) 8:12 AM CDT (5/26)
Length of Visible Light 14h 48m
Length of Day
13h 54m
Waning Gibbous, 96% of the Moon is Illuminated
May 26
Waning Gibbous
May 31
Last Quarter
Jun 8
New
Jun 16
First Quarter
Jun 23
Full

Hourly Weather History & Observations

Time (CDT) Temp. Heat Index Dew Point Humidity Pressure Visibility Wind Dir Wind Speed Gust Speed Precip Events Conditions
12:15 AM 73.4 °F - 69.8 °F 88% 30.13 in 10.0 mi SE 8.1 mph - N/A   Mostly Cloudy
12:35 AM 73.4 °F - 69.8 °F 88% 30.12 in 10.0 mi SE 5.8 mph - N/A   Mostly Cloudy
12:55 AM 73.4 °F - 69.8 °F 88% 30.11 in 10.0 mi SE 6.9 mph - N/A   Overcast
1:15 AM 73.4 °F - 69.8 °F 88% 30.11 in 10.0 mi SSE 5.8 mph - N/A   Overcast
1:35 AM 73.4 °F - 69.8 °F 88% 30.10 in 10.0 mi SSE 10.4 mph - N/A   Overcast
1:55 AM 73.4 °F - 69.8 °F 88% 30.10 in 10.0 mi South 6.9 mph - N/A   Mostly Cloudy
2:15 AM 73.4 °F - 69.8 °F 88% 30.11 in 10.0 mi South 5.8 mph - N/A   Overcast
2:35 AM 73.4 °F - 69.8 °F 88% 30.12 in 10.0 mi South 4.6 mph - N/A   Overcast
2:55 AM 73.4 °F - 69.8 °F 88% 30.11 in 10.0 mi SSW 4.6 mph - N/A Thunderstorm Overcast
3:15 AM 69.8 °F - 62.6 °F 78% 30.14 in 3.0 mi North 12.7 mph 18.4 mph 0.25 in Rain , Thunderstorm Heavy Thunderstorms and Rain
3:35 AM 64.4 °F - 62.6 °F 94% 30.16 in 0.8 mi North 16.1 mph 21.9 mph 0.77 in Rain , Thunderstorm Heavy Thunderstorms and Rain
3:55 AM 62.6 °F - 62.6 °F 100% 30.15 in 1.0 mi North 9.2 mph 23.0 mph 1.34 in Rain , Thunderstorm Heavy Thunderstorms and Rain
4:15 AM 62.6 °F - 62.6 °F 100% 30.13 in 3.0 mi NNE 6.9 mph - 0.09 in Rain , Thunderstorm Heavy Rain
4:35 AM 62.6 °F - 62.6 °F 100% 30.14 in 3.0 mi Calm Calm - 0.19 in Rain , Thunderstorm Light Rain
4:55 AM 62.6 °F - 62.6 °F 100% 30.15 in 7.0 mi Calm Calm - 0.19 in Rain , Thunderstorm Light Rain
5:15 AM 62.6 °F - 62.6 °F 100% 30.13 in 10.0 mi Calm Calm - 0.01 in Thunderstorm Mostly Cloudy
5:35 AM 64.4 °F - 64.4 °F 100% 30.09 in 7.0 mi East 15.0 mph - 0.02 in Rain , Thunderstorm Light Rain
5:55 AM 64.4 °F - 64.4 °F 100% 30.03 in 9.0 mi East 26.5 mph 33.4 mph 0.02 in Thunderstorm Mostly Cloudy
6:15 AM 68.0 °F - 60.8 °F 78% 30.00 in 10.0 mi ENE 20.7 mph 27.6 mph N/A Thunderstorm Partly Cloudy
6:35 AM 69.8 °F - 59.0 °F 68% 29.97 in 10.0 mi East 17.3 mph 21.9 mph N/A   Clear
6:55 AM 69.8 °F - 59.0 °F 68% 29.95 in 10.0 mi SSW 10.4 mph 25.3 mph N/A   Clear
7:15 AM 71.6 °F - 57.2 °F 60% 30.01 in 10.0 mi West 13.8 mph 20.7 mph N/A   Clear
7:35 AM 68.0 °F - 60.8 °F 78% 30.04 in 10.0 mi West 8.1 mph 16.1 mph N/A   Clear
7:55 AM 68.0 °F - 62.6 °F 83% 30.05 in 10.0 mi West 6.9 mph - N/A   Clear
8:15 AM 68.0 °F - 62.6 °F 83% 30.08 in 10.0 mi WSW 6.9 mph - N/A   Clear
8:35 AM 68.0 °F - 62.6 °F 83% 30.08 in 10.0 mi SW 5.8 mph - N/A Thunderstorm Clear
8:55 AM 69.8 °F - 62.6 °F 78% 30.09 in 10.0 mi SW 6.9 mph - N/A   Clear
9:15 AM 69.8 °F - 62.6 °F 78% 30.09 in 10.0 mi SW 9.2 mph - N/A   Clear
9:35 AM 69.8 °F - 62.6 °F 78% 30.11 in 10.0 mi SSW 4.6 mph - N/A   Clear
9:55 AM 69.8 °F - 62.6 °F 78% 30.11 in 10.0 mi SSW 9.2 mph - N/A   Clear
10:15 AM 71.6 °F - 62.6 °F 73% 30.12 in 10.0 mi South 11.5 mph - N/A   Clear
10:35 AM 73.4 °F - 62.6 °F 69% 30.12 in 10.0 mi South 9.2 mph - N/A   Clear
10:55 AM 75.2 °F - 64.4 °F 69% 30.12 in 10.0 mi South 15.0 mph - N/A   Clear
11:15 AM 77.0 °F - 64.4 °F 65% 30.12 in 10.0 mi South 15.0 mph 23.0 mph N/A   Clear
11:35 AM 78.8 °F - 66.2 °F 65% 30.12 in 10.0 mi SSW 17.3 mph - N/A   Clear
11:55 AM 80.6 °F 83.2 °F 68.0 °F 65% 30.12 in 10.0 mi South 17.3 mph 25.3 mph N/A   Partly Cloudy
12:15 PM 80.6 °F 83.9 °F 69.8 °F 70% 30.11 in 10.0 mi SSW 16.1 mph 21.9 mph N/A   Scattered Clouds
12:35 PM 80.6 °F 83.2 °F 68.0 °F 65% 30.11 in 10.0 mi South 18.4 mph 25.3 mph N/A   Scattered Clouds
12:55 PM 80.6 °F 83.2 °F 68.0 °F 65% 30.11 in 10.0 mi South 16.1 mph 21.9 mph N/A   Partly Cloudy
1:15 PM 80.6 °F 83.2 °F 68.0 °F 65% 30.10 in 10.0 mi South 18.4 mph 23.0 mph N/A   Scattered Clouds
1:35 PM 82.4 °F 84.6 °F 66.2 °F 58% 30.09 in 10.0 mi South 16.1 mph 23.0 mph N/A   Scattered Clouds
1:55 PM 82.4 °F 85.4 °F 68.0 °F 62% 30.08 in 10.0 mi South 15.0 mph - N/A   Partly Cloudy
2:15 PM 84.2 °F 87.3 °F 68.0 °F 58% 30.07 in 10.0 mi SSW 15.0 mph 23.0 mph N/A   Partly Cloudy
2:35 PM 84.2 °F 87.3 °F 68.0 °F 58% 30.07 in 10.0 mi South 16.1 mph 23.0 mph N/A   Partly Cloudy
2:55 PM 84.2 °F 87.3 °F 68.0 °F 58% 30.06 in 10.0 mi South 12.7 mph - N/A   Partly Cloudy
3:15 PM 84.2 °F 87.3 °F 68.0 °F 58% 30.05 in 10.0 mi South 16.1 mph 19.6 mph N/A   Partly Cloudy
3:35 PM 84.2 °F 87.3 °F 68.0 °F 58% 30.05 in 10.0 mi South 13.8 mph - N/A   Partly Cloudy
3:55 PM 86.0 °F 88.2 °F 66.2 °F 51% 30.04 in 10.0 mi South 15.0 mph 20.7 mph N/A   Partly Cloudy
4:15 PM 87.8 °F 90.4 °F 66.2 °F 49% 30.03 in 10.0 mi South 17.3 mph 20.7 mph N/A   Partly Cloudy
4:35 PM 87.8 °F 90.4 °F 66.2 °F 49% 30.02 in 10.0 mi South 15.0 mph 20.7 mph N/A   Scattered Clouds
4:55 PM 87.8 °F 89.4 °F 64.4 °F 46% 30.02 in 10.0 mi South 13.8 mph - N/A   Scattered Clouds
5:15 PM 87.8 °F 90.4 °F 66.2 °F 49% 30.01 in 10.0 mi SSE 15.0 mph 20.7 mph N/A   Partly Cloudy
5:35 PM 87.8 °F 89.4 °F 64.4 °F 46% 30.00 in 10.0 mi SSE 11.5 mph 20.7 mph N/A   Partly Cloudy
5:55 PM 86.0 °F 87.3 °F 64.4 °F 48% 29.99 in 10.0 mi South 15.0 mph 20.7 mph N/A   Clear
6:15 PM 87.8 °F 89.4 °F 64.4 °F 46% 29.99 in 10.0 mi SSE 12.7 mph 18.4 mph N/A   Clear
6:35 PM 87.8 °F 89.4 °F 64.4 °F 46% 29.99 in 10.0 mi SSE 13.8 mph 20.7 mph N/A   Clear
6:55 PM 84.2 °F 86.6 °F 66.2 °F 55% 29.99 in 10.0 mi SSE 11.5 mph 19.6 mph N/A   Clear
7:15 PM 84.2 °F 85.6 °F 64.4 °F 51% 29.99 in 10.0 mi South 16.1 mph 23.0 mph N/A   Clear
7:35 PM 84.2 °F 86.6 °F 66.2 °F 55% 30.00 in 10.0 mi SSE 12.7 mph - N/A   Partly Cloudy
7:55 PM 84.2 °F 86.6 °F 66.2 °F 55% 30.00 in 10.0 mi SSE 11.5 mph 18.4 mph N/A   Partly Cloudy
8:15 PM 82.4 °F 84.6 °F 66.2 °F 58% 30.01 in 10.0 mi South 11.5 mph 17.3 mph N/A   Clear
8:35 PM 82.4 °F 84.6 °F 66.2 °F 58% 30.01 in 10.0 mi SSE 10.4 mph 18.4 mph N/A   Clear
8:55 PM 80.6 °F 83.2 °F 68.0 °F 65% 30.02 in 10.0 mi SSE 8.1 mph - N/A   Clear
9:15 PM 80.6 °F 83.9 °F 69.8 °F 70% 30.03 in 10.0 mi SSE 15.0 mph 19.6 mph N/A   Clear
9:35 PM 78.8 °F - 69.8 °F 74% 30.03 in 10.0 mi SSE 11.5 mph 17.3 mph N/A   Clear
9:55 PM 78.8 °F - 68.0 °F 69% 30.04 in 10.0 mi South 13.8 mph 18.4 mph N/A   Clear
10:15 PM 77.0 °F - 68.0 °F 74% 30.05 in 10.0 mi SSE 9.2 mph 17.3 mph N/A   Clear
10:35 PM 75.2 °F - 66.2 °F 73% 30.05 in 10.0 mi SSE 11.5 mph 18.4 mph N/A   Clear
10:55 PM 75.2 °F - 66.2 °F 73% 30.06 in 10.0 mi South 11.5 mph - N/A   Clear
11:15 PM 73.4 °F - 66.2 °F 78% 30.06 in 10.0 mi South 9.2 mph - N/A   Clear
11:35 PM 73.4 °F - 66.2 °F 78% 30.06 in 10.0 mi South 12.7 mph - N/A   Clear
11:55 PM 73.4 °F - 66.2 °F 78% 30.06 in 10.0 mi South 15.0 mph 19.6 mph N/A   Clear